Tracking 19562 objects as of 21-Mar-2019
HD Live streaming from Space Station
objects crossing your sky now

METEOSAT 2

Track METEOSAT 2 now!
METEOSAT 2 is classified as:


NORAD ID: 12544
Int'l Code: 1981-057A
Perigee: 36,084.4 km
Apogee: 36,382.5 km
Inclination: 14.4 °
Period: 1,458.6 minutes
Semi major axis: 42604 km
RCS: 4.5984 m2 (large)
Launch date: June 19, 1981
Source: European Space Agency (ESA)
Launch site: FRENCH GUIANA (FRGUI)
aabbcc
Your satellite tracking list
Your tracking list is empty




NASA's NSSDC Master Catalog

Two Line Element Set (TLE):
1 12544U 81057A   19080.34763627 -.00000020  00000-0  00000+0 0  9995
2 12544  14.4033 341.0803 0034983 319.4670 226.2554  0.98723531 97773
Source of the keplerian elements: AFSPC